APSTAR-9

Last updated on Sun Apr 27 2025 00:02:41 GMT+0000 (Coordinated Universal Time)

1 40982U 15059A 25115.91576321 -.00000263 00000+0 00000+0 0 9991 2 40982 0.0202 31.9020 0000902 341.3703 312.5691 1.00270995 34935
UTC large
Height (km)
Speed (km/s)
/
Latitude / Longitude
Inclination (degrees)
Orbital Period (minutes)
Azimuth
Elevation
Range (km)
Doppler Factor

Next 0 passes for location: London (51.5072 / 0.1276)

Sorry there are no passes over London.